Wind_Speed
90 88 86 83 81 80 80 81 82 84 87 89 87 84 80 80 79 78 77 75 75 75 72 70 70 70 69 66 64 63 60 59 58 56 54 52 50 49 48 47 47 47 44 41 43 45 44 42 40 39 38 38 37 35 35 35 35 36 39 40 38 35 36 37 35 34 36 36 36 37 36 36 36 36 36 36 36 35 35 35 36 36 37 38 39 40
91 89 85 82 81 81 81 82 83 84 85 86 87 85 82 80 80 79 78 77 76 75 75 73 71 71 70 67 65 64 63 62 61 59 58 55 54 52 51 50 49 49 45 44 47 48 46 45 43 41 40 41 40 38 38 40 38 36 38 40 40 39 40 39 37 35 36 37 39 40 39 38 38 39 40 40 39 38 38 37 37 38 40 40 41 42
91 88 85 84 83 83 84 84 84 84 85 85 86 86 82 80 81 80 78 78 77 76 76 76 74 72 72 70 66 64 64 64 63 62 61 59 57 55 54 53 51 50 47 47 50 50 49 48 46 46 46 46 46 44 44 45 43 39 39 40 42 43 43 40 38 38 38 39 41 41 40 40 41 42 43 43 42 42 41 41 41 42 42 43 43 45
89 85 85 85 86 86 85 84 84 85 85 85 86 86 83 81 82 82 80 79 79 77 77 78 76 74 74 73 68 65 64 65 63 62 62 61 60 59 58 56 54 52 51 50 51 52 51 51 50 50 50 49 49 49 49 49 48 46 43 43 45 45 44 42 41 41 41 42 43 42 40 41 43 44 44 45 45 45 45 45 45 44 44 45 46 48
90 87 86 86 87 87 86 85 85 85 84 83 84 85 85 84 83 82 81 80 80 79 78 79 77 74 75 74 70 67 66 65 63 61 61 61 61 62 60 59 57 55 54 52 53 53 53 54 53 53 52 52 52 51 51 51 50 49 48 48 48 47 45 44 43 43 43 45 46 43 41 42 44 45 46 47 48 49 49 49 48 47 47 48 49 51
94 92 91 90 89 88 86 84 84 84 83 82 83 85 86 86 84 82 81 80 80 79 79 81 77 73 74 74 71 70 67 65 64 61 60 60 61 61 61 61 60 57 56 55 55 54 54 56 56 55 54 53 53 53 52 52 51 51 50 50 49 49 48 47 46 45 46 49 48 45 44 45 45 46 47 47 49 51 52 51 51 50 51 51 52 54
95 94 93 92 90 89 87 84 84 85 84 82 83 85 87 87 86 83 81 80 80 80 80 81 77 73 75 75 72 71 67 65 65 62 60 61 60 61 62 62 61 59 58 57 57 56 55 56 57 57 56 55 55 54 53 53 54 53 53 52 52 51 51 50 49 47 48 50 49 47 48 48 48 48 48 48 50 52 53 54 54 54 54 54 55 57
96 94 94 93 91 90 87 85 84 86 87 84 85 87 87 87 87 86 83 80 80 81 81 80 78 74 74 75 74 73 68 65 64 63 62 63 62 62 62 63 62 61 59 58 58 57 56 56 58 58 58 57 56 56 55 56 56 55 54 54 54 54 53 54 53 51 51 51 51 51 52 52 52 51 50 50 51 53 54 55 56 57 57 57 58 59
95 94 94 93 92 90 87 85 86 88 87 86 88 89 87 87 87 86 85 81 80 81 81 79 78 74 72 74 75 73 70 66 64 64 63 64 64 63 63 63 63 63 62 60 59 58 58 57 58 59 59 59 59 58 58 58 58 57 55 55 55 56 56 56 56 55 54 53 53 55 56 56 56 54 53 53 53 53 54 56 58 59 59 60 60 60
96 96 95 95 95 93 91 90 90 90 89 88 90 89 86 85 84 84 84 83 82 80 78 79 79 74 71 74 76 72 69 66 65 66 67 67 66 65 64 64 65 66 65 63 62 61 60 59 60 60 60 61 62 61 60 60 60 59 57 56 57 58 58 57 57 57 57 55 54 56 58 59 60 58 57 56 55 55 55 57 59 61 61 62 61 61
101 99 98 98 98 96 95 95 94 91 89 88 89 88 86 84 83 83 83 84 85 80 76 78 79 75 71 72 75 73 70 69 68 69 69 69 69 68 67 67 67 68 68 66 65 64 62 62 62 62 62 63 63 62 62 62 62 60 59 58 59 60 59 59 59 59 58 57 56 58 60 62 62 61 59 58 58 58 58 60 61 62 62 63 63 63
107 105 103 100 98 96 95 96 94 90 88 87 87 86 86 85 83 83 82 83 84 79 77 78 80 78 69 69 76 77 74 74 72 71 70 70 70 70 69 69 69 70 70 68 67 66 66 65 65 65 65 66 65 64 63 63 63 61 59 59 60 60 60 60 60 60 60 60 60 60 61 62 62 61 61 61 61 61 62 62 63 63 63 64 64 65
107 106 104 101 98 97 97 96 93 90 88 86 85 85 86 86 85 84 82 82 81 79 79 81 83 81 71 69 78 80 78 77 76 74 73 71 70 71 71 71 71 72 71 70 69 69 69 68 68 67 68 67 66 65 64 63 63 61 61 60 61 61 61 61 62 62 62 62 62 61 61 62 62 62 62 62 63 64 64 64 64 64 63 64 66 67
107 105 103 100 98 98 98 96 93 90 88 86 85 85 86 87 87 86 84 83 82 80 81 84 87 84 74 71 77 81 80 79 79 79 77 74 72 72 74 73 72 73 72 72 71 71 70 70 69 68 68 68 67 65 64 63 63 63 62 62 61 62 62 62 63 62 62 62 61 61 61 62 62 63 64 65 65 66 66 65 65 65 64 66 68 68
106 104 101 98 96 95 95 95 93 91 91 89 89 89 89 90 90 89 88 87 85 84 83 85 86 82 77 74 76 81 84 82 81 82 80 78 77 75 75 75 75 75 75 74 73 73 73 72 70 68 68 68 67 66 64 63 63 63 63 63 63 64 64 63 62 61 61 61 62 62 63 64 65 66 67 69 69 68 67 66 65 64 65 67 68 69
104 101 97 95 93 93 94 95 95 95 94 93 93 92 91 91 91 91 91 89 88 87 85 84 81 78 77 78 77 80 85 86 84 84 83 82 81 79 77 77 78 78 78 77 76 75 75 74 72 70 69 68 68 67 65 65 65 65 65 64 65 66 67 66 64 63 62 63 64 66 67 68 69 70 71 71 70 68 67 65 65 67 69 71 72 73
104 101 98 97 95 95 95 96 97 97 97 96 95 92 90 90 91 92 93 93 92 90 87 84 81 76 76 78 78 79 85 88 88 87 87 86 84 83 81 81 81 81 81 80 78 77 76 75 73 72 70 69 69 69 68 69 69 69 68 67 67 68 69 70 69 68 67 68 69 70 72 72 72 72 72 71 70 69 69 69 70 72 74 75 75 76
102 100 99 99 99 98 98 97 98 98 98 98 95 92 92 93 93 94 94 95 94 92 88 84 81 79 77 76 77 80 84 89 91 90 89 89 88 86 84 84 83 83 83 83 81 79 77 76 74 73 72 71 71 71 71 72 72 71 71 70 70 69 70 71 71 72 72 72 73 74 74 74 74 74 74 73 72 72 73 74 75 76 77 77 77 78
103 102 101 101 102 102 102 102 102 101 99 97 94 94 95 95 94 94 94 94 93 93 89 86 83 81 79 76 76 80 84 88 91 92 91 91 91 90 88 87 85 84 84 84 84 82 80 78 76 75 74 74 74 74 74 74 74 74 73 72 72 71 71 72 72 72 73 74 74 75 75 76 76 76 76 76 77 77 78 79 80 80 81 80 79 79
104 105 104 104 104 105 106 105 104 101 98 96 95 95 97 96 94 94 94 94 94 94 92 90 87 83 80 78 78 80 83 86 90 92 93 93 93 93 92 90 89 87 85 85 85 84 83 81 79 78 77 77 77 77 76 76 76 76 75 75 74 73 73 73 74 74 75 76 76 76 76 76 77 77 78 79 80 81 82 83 83 83 82 81 80 80
105 106 106 106 107 107 107 105 102 100 98 97 96 97 97 97 96 96 96 97 97 97 95 94 91 84 80 81 81 80 82 84 88 91 93 94 94 94 94 93 92 91 89 87 87 86 85 83 82 81 80 80 79 79 79 78 78 78 77 77 77 76 76 76 76 76 76 77 77 77 77 77 77 77 78 79 79 80 82 84 84 84 83 83 83 84
106 107 107 107 107 105 104 103 102 101 100 100 100 100 100 101 101 100 99 98 98 97 97 96 92 86 81 81 81 81 83 84 85 88 91 93 95 95 96 95 94 94 92 90 89 88 87 86 85 85 84 83 82 82 81 80 80 79 79 79 79 79 78 78 77 77 77 78 78 78 79 79 78 79 79 79 79 80 82 84 85 86 86 86 87 89
108 107 108 108 107 105 104 104 104 104 104 105 104 103 103 103 102 101 99 97 97 97 97 98 95 87 83 83 83 82 84 87 88 88 88 91 93 95 96 96 96 96 95 93 92 90 89 88 88 88 87 86 85 84 83 82 81 81 81 81 80 80 80 80 79 79 79 79 80 80 81 80 80 80 80 80 80 81 82 84 86 87 88 89 91 93
110 110 109 108 108 107 106 106 107 108 108 107 104 102 102 101 100 100 100 98 98 98 98 100 98 88 83 86 87 85 86 89 91 91 90 90 91 93 95 96 98 98 97 95 94 94 93 92 91 91 90 90 88 87 86 84 83 83 83 83 83 83 83 82 82 82 82 82 82 82 82 82 82 82 82 82 82 83 84 85 86 88 90 91 93 94
111 111 111 110 110 109 108 107 107 106 105 103 101 100 99 99 99 100 100 100 100 99 99 102 99 89 85 88 90 89 90 91 93 93 92 91 90 91 93 96 98 99 99 98 96 96 96 95 94 93 92 92 91 90 89 88 87 87 87 87 86 86 86 85 85 85 84 84 84 84 84 84 84 84 84 84 85 85 86 87 88 89 91 93 94 95
114 113 111 110 109 108 106 104 102 100 99 99 99 98 98 99 100 101 103 104 104 103 103 103 98 90 89 91 91 91 93 94 94 93 92 92 92 91 91 94 96 98 99 99 98 97 97 97 96 96 94 94 94 93 93 92 91 91 90 90 89 89 88 88 87 87 87 86 86 86 86 86 86 87 87 87 88 88 89 89 90 92 93 95 96 97
117 116 113 111 109 106 103 102 101 101 102 102 102 103 104 106 107 108 110 109 106 104 103 100 95 90 90 93 93 94 96 96 96 94 92 92 93 93 93 93 94 97 98 99 99 99 98 98 98 98 97 96 96 95 95 95 94 94 93 93 92 91 91 91 90 90 89 89 88 88 88 89 89 89 89 90 91 91 92 92 93 94 95 97 98 100
117 116 114 112 110 108 108 107 107 108 109 109 110 112 113 114 114 114 112 107 104 105 103 98 95 93 91 93 95 97 99 101 100 97 94 94 94 95 96 96 96 97 98 99 100 99 99 99 99 99 99 99 98 97 97 97 97 96 96 95 95 94 94 93 93 92 92 91 91 91 91 91 91 92 92 93 93 94 95 95 96 97 98 99 100 102
116 115 114 114 113 112 111 111 111 111 111 111 113 115 115 114 113 111 107 104 106 108 104 99 99 97 93 93 95 97 100 104 104 103 100 98 97 97 98 100 100 100 100 100 101 101 100 100 100 100 100 100 100 100 99 99 99 99 98 98 98 97 97 96 96 95 95 94 94 94 94 94 94 95 95 96 96 97 98 98 99 99 100 101 102 103
116 115 115 115 116 115 114 113 113 113 113 114 114 114 114 113 112 110 107 107 109 109 104 100 101 100 96 95 96 98 101 104 106 108 107 104 101 100 100 101 102 103 103 104 103 103 102 102 101 101 101 101 102 102 102 102 102 101 101 101 101 100 99 99 99 98 98 98 98 97 97 97 97 98 98 99 99 100 101 101 102 102 103 103 104 105
114 115 116 116 116 116 116 115 115 115 116 116 116 116 114 113 112 111 109 110 111 109 105 104 105 103 98 98 98 99 102 104 106 108 110 109 106 104 104 104 104 104 105 104 104 103 102 102 102 102 102 102 102 103 103 104 104 104 104 104 104 103 102 102 101 101 101 101 101 100 100 100 101 101 102 102 103 103 104 104 104 104 105 105 106 107
111 114 116 117 116 116 116 116 117 117 118 118 117 113 111 110 109 109 110 112 113 111 109 109 108 104 100 101 101 101 102 104 105 107 110 111 111 109 108 107 107 107 106 105 104 103 102 102 101 101 102 103 103 104 104 105 106 107 107 107 106 106 105 105 105 105 104 104 104 103 103 104 104 104 104 105 105 105 106 106 106 106 106 107 108 108
107 110 113 116 118 117 117 117 117 119 119 117 112 107 107 108 108 110 111 112 114 114 113 112 110 106 102 102 103 103 104 105 106 109 111 113 113 112 111 109 108 108 108 107 106 105 105 105 103 102 102 102 103 104 105 106 107 108 109 108 108 108 108 108 108 108 107 107 107 106 106 106 106 106 106 106 106 107 107 107 107 108 108 109 110 110
104 106 108 113 117 118 118 118 119 120 118 112 107 107 109 111 112 113 113 114 116 117 116 114 111 108 106 105 106 108 110 110 110 111 112 113 114 114 113 111 111 111 111 110 109 108 107 108 107 106 105 104 104 104 105 106 108 108 109 109 110 110 111 111 111 111 111 110 109 109 108 108 108 108 107 108 108 108 108 109 109 109 110 111 111 112
106 107 108 111 116 119 120 121 122 120 115 110 109 112 115 116 115 115 115 116 117 117 116 114 112 111 110 110 109 110 112 113 114 113 112 113 114 114 114 113 114 115 115 114 113 111 110 109 109 109 108 107 106 105 105 106 107 108 109 109 110 111 112 112 113 113 113 113 112 112 111 110 110 110 110 110 110 110 110 110 110 111 112 112 113 114
109 111 112 112 115 119 122 123 121 117 112 110 112 116 118 116 116 117 116 115 115 115 114 113 112 112 113 113 112 113 114 116 116 114 114 115 115 115 114 114 115 116 117 117 116 115 113 111 110 110 110 110 110 109 108 107 107 108 109 109 110 111 112 113 114 114 115 115 114 114 113 113 112 112 112 112 111 111 111 112 112 113 114 114 115 116
110 112 113 113 114 115 116 117 116 114 111 111 114 115 114 114 115 117 117 114 113 114 114 113 112 113 115 116 117 118 119 119 117 115 116 117 117 116 115 115 115 116 116 117 116 115 115 113 112 112 111 112 112 112 112 111 110 110 110 110 111 111 112 113 115 116 116 117 117 117 117 117 116 116 115 114 114 114 114 115 115 116 116 117 118 118
107 107 108 109 109 108 107 105 105 106 106 107 108 108 109 110 114 116 116 112 110 112 113 113 112 114 116 118 120 121 122 120 117 115 118 120 119 118 118 117 116 116 117 117 117 116 116 115 114 113 113 113 113 114 114 113 113 113 112 112 112 112 112 113 114 115 116 116 117 118 119 119 119 119 119 119 119 119 119 119 119 119 120 120 121 122
104 105 105 106 106 105 103 102 101 100 99 100 100 102 105 108 111 114 113 108 106 108 111 111 110 111 113 116 119 121 121 119 116 118 121 122 121 120 119 118 118 118 118 119 119 118 118 117 116 116 116 116 115 115 115 114 114 115 114 115 114 114 114 114 114 114 114 114 115 116 117 118 119 120 120 121 121 121 121 121 122 122 122 123 123 124
104 105 106 105 102 100 99 98 97 94 90 90 92 96 101 104 107 110 108 103 102 104 107 109 109 109 110 111 113 115 115 114 115 118 120 121 121 120 120 119 119 119 119 120 120 120 119 118 118 117 117 117 117 117 117 116 116 116 116 116 116 115 115 115 114 114 114 114 115 115 116 117 118 120 121 121 122 122 122 123 123 124 124 125 126 127
100 100 100 97 95 93 93 91 89 85 83 83 87 92 97 100 102 102 99 98 99 101 104 107 107 106 106 105 105 105 106 106 107 110 113 115 117 118 118 119 119 119 119 120 120 121 121 120 119 118 118 118 118 118 118 117 117 117 116 116 115 115 114 114 114 114 115 115 115 116 116 117 118 119 121 121 122 123 123 124 125 125 126 127 128 128
97 94 92 90 89 88 88 87 87 86 86 87 90 94 97 99 97 95 95 97 100 101 102 103 103 101 101 99 98 97 97 97 97 99 102 106 109 112 114 114 115 117 118 119 119 120 120 120 119 118 118 117 117 117 117 117 116 116 116 116 115 115 114 114 114 114 114 115 116 117 117 118 119 120 121 122 123 123 124 125 125 126 127 127 128 128
95 92 90 88 87 86 87 88 90 90 90 91 94 97 99 99 98 97 97 99 100 101 102 101 100 99 98 96 96 96 95 95 94 94 94 96 99 102 104 105 107 109 111 113 115 116 117 117 117 117 117 117 116 116 116 116 116 117 116 116 116 116 115 115 114 114 114 115 116 117 118 119 120 121 121 122 123 123 124 124 125 125 126 126 126 126
96 94 92 90 89 89 90 91 91 92 92 94 98 100 101 100 99 97 95 95 97 99 100 99 98 96 95 93 93 93 93 93 92 91 89 89 89 91 94 95 97 98 101 104 107 109 111 112 113 114 115 115 116 116 116 116 116 116 116 116 116 116 116 115 115 114 114 114 115 116 117 118 119 120 120 121 121 121 122 122 123 123 124 124 125 125
94 92 91 90 89 90 90 91 93 95 96 97 99 101 101 99 95 91 89 90 93 95 95 94 92 91 90 89 88 88 88 88 87 86 85 84 84 85 87 88 90 91 93 96 99 102 104 106 108 109 110 111 113 113 113 113 113 113 113 114 114 114 114 114 114 113 113 114 114 114 115 116 117 118 118 119 119 119 120 120 121 121 122 122 123 123
93 92 91 90 91 92 93 93 94 96 96 96 98 99 99 95 90 86 86 85 85 85 84 81 79 79 81 81 81 81 82 82 82 81 80 80 80 81 82 84 86 87 88 90 92 95 97 99 101 102 104 105 106 107 108 109 109 109 109 110 110 111 112 112 112 111 111 112 112 112 113 113 114 115 116 116 117 117 118 119 119 119 120 120 120 121
96 95 94 93 93 94 92 90 90 92 93 95 96 97 96 92 88 85 82 79 76 74 71 68 65 66 67 70 72 73 74 75 76 76 75 76 76 77 79 80 82 83 84 85 86 88 90 91 93 95 96 97 98 100 101 103 104 105 105 106 107 108 109 110 110 110 109 109 109 110 110 111 112 112 113 113 114 115 115 116 116 117 117 118 119 119
100 98 97 96 93 91 89 89 90 93 96 96 96 96 95 92 89 85 80 76 74 71 67 63 60 58 58 60 63 65 66 67 68 69 70 71 71 72 73 74 76 77 78 79 80 81 83 85 86 88 90 91 93 94 95 96 98 100 101 103 104 105 106 107 109 109 109 109 109 108 108 109 109 110 110 111 111 112 112 113 113 114 115 115 116 117
102 99 98 98 96 93 92 93 93 94 96 95 93 94 95 94 91 86 79 76 74 70 64 61 59 56 55 56 58 60 60 61 62 63 64 66 66 66 67 68 69 70 72 73 74 76 77 79 81 83 85 86 88 90 91 92 94 95 97 99 100 102 103 104 106 107 108 108 109 108 108 108 108 108 108 108 108 109 110 110 111 112 113 114 115 116
101 96 94 94 96 94 91 91 93 93 94 95 93 93 95 92 86 80 75 72 69 65 61 61 59 57 55 55 55 57 57 57 58 58 59 61 62 62 62 63 64 65 67 69 70 71 73 74 76 77 80 82 84 86 88 90 91 92 94 95 97 99 100 102 103 105 106 107 107 108 108 108 108 108 108 108 109 109 110 111 112 113 114 115 116 117
99 95 93 92 93 92 87 87 91 93 95 96 95 94 93 88 80 74 70 68 65 62 61 62 61 59 57 55 55 56 56 56 56 56 57 58 59 60 61 62 62 63 64 65 67 68 69 71 72 73 75 77 80 82 84 86 88 89 91 92 93 95 97 99 101 103 104 106 106 107 108 109 109 110 110 111 112 112 113 114 115 116 117 118 118 119
Wind_Direction
226 226 228 229 229 230 231 231 232 232 231 231 232 232 233 234 235 235 236 237 238 239 240 240 240 242 244 244 243 244 244 245 246 244 243 243 243 244 245 247 249 251 253 253 248 246 247 247 247 250 253 254 254 256 257 259 261 265 269 268 266 270 275 275 278 282 285 284 282 283 285 287 288 288 287 287 288 290 291 291 292 294 297 299 301 303
226 226 227 227 228 229 230 230 231 232 232 232 232 232 232 234 234 234 234 236 237 239 239 240 240 242 244 245 245 246 247 247 246 246 245 244 244 244 245 245 247 250 252 251 247 245 246 247 247 245 246 249 251 252 253 257 259 261 264 265 265 269 272 272 275 281 283 282 281 281 285 288 288 287 288 289 289 289 289 289 290 292 295 296 298 300
226 226 226 226 227 228 230 231 231 232 232 232 232 232 232 233 234 234 233 234 236 237 238 240 240 240 243 245 245 246 247 247 246 246 246 245 245 245 244 245 245 248 249 248 246 245 246 247 247 245 245 248 251 252 254 258 260 260 261 263 264 267 269 270 273 278 279 279 280 282 285 286 285 286 288 290 289 288 287 288 290 293 295 295 296 298
227 226 227 227 228 228 229 230 231 232 232 233 233 233 232 232 234 234 233 233 235 236 237 240 240 240 242 244 245 245 245 246 246 246 246 246 246 245 245 246 246 246 246 246 245 245 246 247 248 249 250 252 253 253 255 259 261 263 263 263 263 265 266 267 270 274 276 277 279 281 283 284 284 285 287 288 288 288 287 287 290 293 294 294 296 297
226 225 226 226 228 229 229 230 231 232 232 233 233 233 232 231 233 234 234 233 235 236 237 239 240 240 243 245 246 246 246 247 247 247 247 247 246 247 247 248 247 246 246 244 244 245 246 248 249 251 253 255 255 254 256 259 262 265 266 266 266 265 264 265 268 272 274 275 277 278 280 282 284 285 285 286 287 288 287 287 289 291 292 293 295 297
226 225 225 225 226 227 228 229 230 231 231 231 232 233 232 231 232 233 234 234 234 235 236 238 240 240 242 244 246 246 246 248 250 249 249 249 248 248 249 248 248 247 246 244 243 244 246 248 250 251 253 255 257 257 258 261 264 265 266 267 266 265 264 264 266 270 272 273 275 277 278 280 282 283 283 285 286 287 287 288 288 289 291 292 295 298
226 226 226 226 226 226 226 227 229 231 231 230 231 232 232 232 232 232 234 234 235 235 236 237 238 238 239 242 244 245 244 245 249 250 250 250 249 248 249 249 248 247 245 244 243 244 246 249 251 252 253 255 257 260 262 264 264 264 265 266 266 266 265 264 266 269 271 272 273 274 276 278 280 280 281 284 285 286 287 288 289 289 290 292 295 298
226 227 227 227 227 227 227 227 228 230 230 229 230 232 232 233 233 233 233 235 236 236 236 238 238 237 239 242 244 245 244 243 246 248 249 250 249 249 249 249 249 247 246 245 244 244 246 249 251 253 254 255 257 260 263 264 264 264 265 266 266 266 265 265 266 268 270 271 272 272 274 277 279 280 281 282 284 285 286 288 288 289 290 292 294 297
227 228 228 228 228 228 227 227 228 229 229 229 230 232 232 233 234 234 234 234 235 237 237 238 239 237 237 240 243 246 246 245 245 246 248 249 249 249 249 249 249 248 247 246 245 245 247 249 251 253 254 255 256 259 261 263 264 265 265 266 266 266 267 267 267 268 269 270 270 271 274 276 278 279 280 281 281 283 285 287 288 288 289 291 293 294
226 227 228 228 228 227 226 226 226 227 228 229 230 232 232 233 234 234 234 234 234 236 238 238 239 237 234 237 241 244 246 245 242 243 245 247 248 248 249 250 249 249 248 246 246 246 247 249 251 253 254 254 255 257 260 262 263 263 264 266 267 268 268 268 268 269 269 269 269 270 272 275 277 279 280 281 281 282 283 284 285 286 287 289 291 292
223 224 225 226 227 226 226 226 226 227 228 229 231 232 233 233 234 234 235 235 235 236 237 239 240 237 233 235 240 242 242 242 240 241 242 244 246 247 248 249 249 249 248 248 248 248 249 250 251 252 253 254 255 257 259 260 261 262 263 267 269 269 269 269 269 269 269 269 269 269 270 272 276 279 281 281 281 282 282 283 284 285 286 288 290 292
223 224 224 225 226 227 227 227 227 227 228 230 232 232 233 233 233 234 234 236 236 235 236 238 240 238 233 231 236 238 238 239 240 240 239 239 242 244 245 246 248 249 250 250 250 251 251 251 252 253 253 254 255 256 258 259 260 261 263 266 269 269 269 269 269 270 269 270 270 270 270 273 277 280 281 282 282 283 284 284 284 285 286 287 289 290
225 225 226 226 226 227 228 228 228 228 228 230 231 233 233 234 234 234 235 236 237 236 236 238 238 239 233 227 231 236 237 238 240 240 239 238 240 243 245 246 247 249 251 252 252 253 253 253 254 254 254 255 255 256 257 258 259 260 262 265 267 268 269 270 270 270 270 270 270 271 272 275 278 280 280 281 283 284 284 284 285 285 286 286 286 287
227 227 228 228 228 228 229 229 229 230 230 230 232 233 234 234 235 235 235 235 235 235 235 236 238 239 236 227 228 235 237 238 241 241 241 240 239 241 244 245 246 247 249 251 252 253 254 255 255 255 255 255 256 256 256 256 257 259 261 263 265 267 269 270 270 271 271 271 270 272 274 276 278 279 280 281 283 283 284 284 284 285 284 284 284 284
228 228 229 231 232 232 232 232 231 231 230 230 230 232 233 234 235 235 235 235 235 234 234 236 238 240 238 231 229 234 237 238 240 241 242 241 240 239 241 244 245 245 246 248 250 252 254 255 256 256 255 256 256 256 256 256 256 258 260 262 264 265 267 269 270 271 271 271 271 273 275 276 277 278 279 281 282 283 283 283 283 283 283 283 283 284
226 227 228 230 232 233 234 233 233 232 231 231 231 232 234 235 236 236 236 235 235 235 235 236 238 238 238 236 232 233 236 237 238 240 242 241 240 240 240 241 243 245 246 247 248 250 253 255 256 257 256 256 257 257 257 257 257 259 261 262 263 264 265 265 266 267 268 268 269 271 273 275 276 278 279 280 281 281 281 281 281 281 281 283 284 285
226 227 227 229 229 231 232 232 233 232 232 231 231 232 233 235 236 235 235 235 235 236 235 235 236 236 236 237 235 232 234 236 236 237 240 241 241 241 240 240 241 244 246 248 249 250 252 254 255 257 257 256 257 257 258 258 259 260 261 262 263 263 264 264 264 265 266 267 268 270 273 275 277 278 279 280 280 280 279 280 280 281 283 284 285 286
227 228 228 229 230 231 232 232 233 232 232 232 231 232 232 233 234 235 235 236 236 236 236 236 236 235 235 237 237 234 233 236 237 236 238 241 242 242 241 241 242 243 245 248 250 251 252 253 254 255 255 256 256 257 257 258 259 260 261 262 263 264 264 264 265 265 267 268 270 272 274 276 278 279 279 279 279 279 280 281 282 283 284 285 285 286
225 227 228 229 230 231 232 233 233 233 233 233 232 232 233 233 234 236 236 237 237 237 236 235 235 235 235 235 236 236 235 236 238 237 237 239 241 243 242 242 242 243 244 247 250 252 252 252 252 253 253 254 255 256 257 258 259 260 261 261 263 264 264 265 265 266 267 268 270 273 275 276 278 279 280 280 280 280 280 281 282 284 285 285 285 286
225 226 227 228 229 230 231 232 233 233 234 234 233 233 234 235 235 237 238 238 238 238 236 235 235 235 235 234 235 237 238 238 238 238 238 238 239 242 243 243 244 244 244 246 248 251 252 252 252 252 252 253 254 256 257 258 259 260 261 262 263 264 265 265 265 266 267 268 270 272 274 276 277 278 279 279 280 280 280 281 282 283 284 285 285 285
224 226 227 228 229 230 231 232 233 234 234 234 234 234 234 234 234 235 236 236 236 237 236 235 234 233 233 235 236 237 239 239 239 239 239 239 239 241 243 244 245 246 246 246 247 249 251 252 252 252 252 253 254 255 257 258 259 260 262 263 264 266 267 267 268 268 269 270 272 273 274 275 276 277 277 278 278 279 280 280 281 282 283 284 284 285
224 226 227 228 230 231 232 233 234 234 235 235 234 234 234 234 234 234 235 236 236 237 237 236 234 232 233 236 237 238 239 240 241 240 240 240 240 241 243 244 245 246 247 247 247 247 249 250 252 252 253 253 253 254 255 257 258 260 261 263 264 266 268 269 269 270 271 271 272 272 273 274 275 276 277 278 278 278 279 280 281 282 283 283 284 285
223 225 226 228 229 231 232 232 233 234 234 235 235 235 235 236 236 236 236 237 238 238 238 238 236 233 233 236 236 237 238 239 241 242 242 241 241 241 242 244 245 245 246 247 247 247 247 248 249 251 252 252 253 253 254 256 257 258 260 261 263 265 267 268 269 270 270 270 271 272 273 274 276 277 278 278 278 278 278 279 280 281 282 282 283 284
223 224 225 226 227 229 230 232 233 234 234 235 236 237 238 238 239 239 238 238 238 239 239 239 238 234 232 235 236 236 238 240 241 242 243 243 243 242 243 243 245 246 246 246 247 247 247 247 248 249 251 252 253 254 254 255 256 257 258 260 261 263 264 266 267 268 269 270 270 272 273 274 275 277 277 277 278 278 278 279 280 281 281 282 283 284
224 224 225 226 227 228 229 231 233 235 236 238 239 240 240 241 241 241 240 239 239 239 239 240 239 235 231 234 236 237 239 241 242 243 243 244 244 244 244 244 244 246 247 247 247 247 249 249 249 249 250 252 254 255 256 256 257 257 258 259 260 262 263 264 265 267 268 268 270 271 272 273 274 276 276 277 277 278 279 279 280 281 282 282 283 284
224 225 225 226 228 229 231 233 235 237 238 239 240 241 241 241 242 241 241 239 238 239 239 240 240 236 233 234 237 238 240 241 242 243 243 244 245 245 245 245 245 246 247 248 248 248 249 250 251 251 252 252 254 256 257 258 258 258 259 259 260 261 262 263 264 265 266 267 268 270 271 272 273 274 275 276 277 278 278 279 280 280 281 282 283 284
225 225 225 226 227 228 230 231 233 234 235 236 236 237 237 238 238 238 238 238 239 239 239 241 240 237 235 235 236 238 241 242 242 242 243 245 246 246 247 247 247 248 248 249 249 250 250 251 252 253 254 254 255 256 257 258 258 258 259 259 259 260 261 262 264 265 266 266 267 268 269 270 271 273 274 275 275 276 277 278 279 280 281 281 282 283
226 226 226 227 228 227 228 229 230 231 232 233 234 235 236 236 237 238 239 240 241 241 241 241 241 239 236 237 237 237 240 243 244 244 244 245 246 247 248 248 248 249 250 251 251 251 251 251 252 253 254 255 255 255 256 257 258 258 259 259 260 260 261 262 263 264 265 266 267 267 268 269 270 271 272 273 274 275 276 277 278 279 280 281 282 283
227 227 227 227 228 228 229 230 231 232 233 234 236 237 238 239 240 241 242 242 243 243 241 241 242 241 239 238 238 238 239 242 245 245 245 245 246 247 248 250 250 250 251 252 253 254 254 253 253 253 253 254 255 255 256 257 258 259 259 260 261 261 261 262 263 263 264 265 266 267 268 269 270 271 272 272 273 274 275 276 277 278 279 280 281 282
229 229 229 229 228 229 229 230 231 233 234 235 236 237 239 240 241 241 242 243 244 244 243 242 243 243 241 240 240 239 239 241 243 246 246 246 246 247 249 251 252 253 253 253 254 255 255 255 255 254 254 253 254 255 256 257 258 259 260 261 262 262 262 263 263 264 264 265 266 267 268 268 269 270 271 272 273 274 275 276 277 278 279 280 280 281
231 230 230 230 230 230 230 231 232 233 235 236 237 238 239 240 241 242 243 244 245 245 245 244 244 243 243 243 242 241 241 242 243 245 247 248 248 249 250 252 253 254 254 254 254 255 255 256 256 256 255 255 255 255 256 257 258 259 260 261 262 262 263 263 264 264 265 266 267 267 268 269 269 270 271 272 273 274 275 276 277 278 279 280 281 282
236 234 232 232 232 232 231 232 233 234 235 236 237 239 241 242 244 244 245 245 246 246 246 246 245 244 244 245 245 243 243 245 245 245 246 248 249 249 250 252 253 254 255 255 255 255 255 255 256 257 257 257 257 257 257 257 258 258 259 261 262 262 263 264 264 265 266 267 267 268 268 269 270 271 272 272 274 275 276 277 278 279 279 280 281 282
239 238 237 236 235 235 234 234 234 235 236 237 238 240 242 243 244 245 245 246 246 247 247 247 247 247 247 247 248 247 246 245 246 247 248 249 250 250 250 251 253 254 256 256 256 256 256 256 256 256 257 258 259 258 258 258 258 258 259 260 261 262 263 264 265 266 266 267 267 268 268 269 270 271 272 273 274 275 276 277 278 279 280 281 281 282
239 240 240 239 239 238 237 236 236 236 237 238 240 241 242 243 244 244 245 246 247 247 248 248 249 250 250 249 249 249 248 247 247 248 250 251 251 251 251 250 251 253 254 255 256 257 257 258 258 257 257 257 258 259 259 259 259 259 260 260 261 261 262 263 264 265 266 267 267 268 268 269 270 271 272 273 274 275 277 278 279 280 281 281 281 282
237 238 239 240 241 240 238 238 238 238 238 240 241 242 242 243 244 245 246 247 248 248 249 249 250 251 252 251 250 250 250 250 249 249 250 250 251 251 251 250 250 251 252 253 255 256 257 259 260 260 259 258 258 258 259 259 260 261 261 261 261 262 262 262 263 264 265 266 267 267 268 269 270 271 272 274 275 276 277 278 279 279 280 280 281 281
234 235 236 238 239 240 239 239 239 239 240 241 241 242 243 244 245 246 246 248 249 250 251 251 252 253 254 254 253 252 251 251 251 250 250 249 250 250 251 251 251 252 252 253 254 255 257 258 259 260 261 262 261 260 260 260 260 261 261 262 262 262 262 263 263 263 264 265 266 267 268 269 270 271 272 273 274 275 276 277 277 278 278 279 280 280
234 236 237 238 240 242 243 243 242 242 243 243 243 244 245 247 248 248 248 249 251 252 253 253 253 254 255 255 255 254 253 252 252 253 252 252 251 250 251 252 252 253 254 255 255 256 256 257 258 259 261 262 263 263 263 262 261 261 261 262 262 262 263 263 263 264 264 265 266 267 268 269 270 271 271 272 273 273 274 275 275 276 277 278 279 280
237 238 239 240 242 244 246 247 246 246 246 247 247 248 250 251 251 250 250 251 252 254 254 254 254 255 255 255 255 255 255 254 254 255 255 254 253 253 253 253 253 254 255 256 256 257 257 257 257 258 259 260 261 262 264 264 264 264 263 263 263 263 263 263 264 264 265 266 266 267 268 269 269 270 270 271 271 272 273 274 275 275 276 277 278 279
240 241 242 243 244 245 247 249 249 249 250 250 251 251 252 252 252 252 252 252 254 255 255 255 255 255 256 256 256 256 256 256 255 256 256 256 256 256 255 255 255 255 256 256 257 257 257 258 258 258 258 259 260 261 262 263 264 265 265 265 264 264 264 264 265 265 266 266 267 267 268 268 269 269 270 270 271 272 273 274 274 275 276 277 278 279
242 243 245 246 248 249 250 251 252 252 252 252 252 252 252 253 253 254 255 255 255 256 257 256 255 255 256 256 257 257 257 257 257 257 257 258 258 258 258 257 257 256 256 257 257 258 258 258 258 258 259 259 260 260 261 262 263 264 264 265 266 266 266 266 266 267 267 267 267 267 267 268 268 269 269 270 271 272 272 273 274 275 276 277 278 279
242 244 246 248 249 251 252 252 252 252 252 252 253 253 253 253 254 256 258 258 258 257 257 257 256 256 256 257 258 259 260 260 260 260 260 260 259 260 260 260 259 259 258 258 258 258 259 259 259 259 259 260 260 260 260 261 262 263 263 264 265 265 265 266 266 266 266 266 266 266 267 267 267 268 268 269 270 271 271 272 273 274 275 276 277 278
241 243 245 246 248 249 250 251 251 251 252 253 255 256 257 257 258 258 259 259 259 259 258 258 259 259 258 259 260 261 262 262 262 262 262 261 261 261 261 260 260 260 259 259 259 259 259 259 259 259 259 259 260 260 260 260 261 261 262 262 263 263 264 264 264 264 264 265 265 265 266 266 266 267 267 268 269 270 271 272 272 273 274 275 276 277
240 241 243 244 245 246 248 249 251 252 253 254 256 257 258 259 260 260 261 262 264 265 264 264 264 264 263 263 264 264 264 264 264 264 263 263 262 262 261 261 260 260 259 259 259 258 258 258 258 258 259 259 259 259 259 260 260 260 261 261 262 262 262 262 262 262 262 263 263 264 264 265 265 266 267 268 268 269 270 271 272 273 274 275 276 277
239 240 242 243 244 246 247 249 251 252 253 254 256 258 259 260 262 263 266 268 270 270 270 270 269 269 268 267 267 267 267 267 266 266 265 264 263 263 262 261 260 259 259 258 258 258 258 257 257 257 258 258 258 259 259 259 260 260 260 261 261 261 261 261 261 261 261 262 262 262 263 264 264 265 266 267 268 269 270 271 272 273 274 274 275 276
242 242 243 244 245 246 247 249 250 252 254 256 258 260 261 262 264 267 270 272 273 273 273 272 272 272 271 269 268 268 267 267 267 266 265 264 263 262 262 261 260 259 258 257 257 257 257 256 256 256 256 256 257 257 258 258 258 258 259 259 259 260 260 260 261 261 261 261 262 262 263 263 264 265 266 267 268 269 270 271 271 272 273 274 275 276
243 243 244 244 245 246 247 249 252 255 256 258 259 261 263 265 267 270 273 274 275 275 275 275 274 272 271 269 268 266 266 266 265 265 264 263 263 262 262 261 261 260 259 258 257 256 256 256 256 255 255 255 255 256 256 257 257 257 257 257 257 258 259 260 261 261 262 262 263 263 264 264 265 265 266 267 268 269 270 271 272 273 274 275 276 276
244 245 245 245 246 249 250 252 254 256 257 259 260 263 266 268 270 272 273 272 272 273 276 278 278 276 274 272 269 267 266 266 266 265 265 265 264 264 263 263 263 262 262 261 259 258 258 257 257 256 256 256 256 256 257 257 257 257 257 257 257 257 258 259 260 261 262 263 264 264 265 266 266 267 268 268 269 270 271 272 273 274 274 275 276 277
244 245 246 247 248 250 252 253 255 256 258 260 263 266 268 269 270 271 270 269 271 274 277 280 282 281 279 276 273 271 270 269 268 267 267 267 266 265 264 264 264 264 264 263 263 262 261 260 259 258 258 258 258 258 258 258 258 258 259 259 259 259 259 259 260 261 262 263 264 265 266 267 268 269 270 270 271 272 273 273 274 275 275 276 277 278
244 244 245 247 249 250 252 254 257 259 261 263 265 267 268 269 270 270 269 270 273 275 278 281 283 282 279 277 274 272 271 270 269 268 268 268 267 266 265 265 264 264 265 265 265 264 264 263 262 261 260 260 259 259 259 259 259 259 259 260 260 260 260 261 261 261 262 263 264 265 266 267 268 269 270 271 271 272 273 273 274 275 275 276 277 277
245 245 246 248 250 252 253 256 259 260 262 264 265 266 268 269 271 271 270 271 272 274 278 283 283 280 277 274 272 270 270 269 269 268 268 269 269 268 268 267 266 265 265 265 265 265 265 265 264 263 262 261 261 260 260 260 260 260 261 261 261 261 262 262 262 262 263 263 264 265 266 267 267 268 269 270 271 271 272 273 273 274 275 275 276 277
247 248 248 249 251 253 254 256 258 260 262 264 266 267 269 271 271 270 269 269 269 273 280 284 282 279 277 274 270 268 267 267 267 267 267 268 268 269 269 269 268 267 266 266 265 265 265 264 264 264 263 262 262 261 261 261 261 261 261 262 262 262 262 262 262 263 263 263 264 264 265 266 267 267 268 269 270 271 272 273 273 274 275 276 276 277
Height
10725 10731 10740 10750 10756 10759 10761 10763 10765 10768 10772 10779 10784 10788 10792 10795 10799 10801 10805 10811 10816 10821 10826 10830 10832 10831 10835 10845 10848 10851 10854 10857 10861 10863 10865 10868 10870 10872 10874 10875 10875 10876 10879 10882 10880 10878 10880 10881 10881 10881 10881 10881 10881 10882 10882 10883 10884 10884 10884 10884 10884 10884 10883 10883 10883 10882 10882 10881 10879 10878 10878 10877 10876 10875 10874 10873 10871 10870 10869 10868 10867 10866 10864 10863 10861 10859
10717 10727 10739 10745 10749 10750 10750 10753 10757 10761 10766 10772 10776 10781 10786 10789 10793 10795 10800 10806 10810 10816 10821 10823 10827 10828 10830 10838 10844 10847 10850 10852 10854 10857 10860 10863 10865 10867 10869 10870 10870 10871 10876 10877 10874 10873 10875 10876 10877 10877 10878 10878 10878 10878 10878 10878 10879 10880 10880 10880 10881 10880 10879 10879 10879 10879 10878 10877 10875 10874 10874 10874 10873 10872 10870 10869 10868 10866 10865 10864 10863 10862 10861 10860 10858 10856
10715 10728 10734 10737 10739 10740 10742 10748 10753 10756 10761 10765 10770 10775 10781 10784 10786 10789 10795 10800 10804 10810 10814 10816 10821 10823 10824 10831 10838 10843 10845 10845 10848 10851 10854 10857 10860 10862 10862 10864 10866 10868 10871 10871 10869 10869 10871 10872 10872 10872 10872 10873 10874 10874 10873 10874 10875 10876 10876 10876 10877 10876 10875 10875 10875 10874 10874 10873 10871 10870 10870 10870 10869 10868 10867 10865 10864 10862 10861 10860 10859 10858 10857 10856 10854 10852
10715 10725 10727 10729 10730 10732 10738 10744 10747 10751 10756 10761 10764 10769 10775 10777 10778 10782 10789 10794 10798 10804 10807 10808 10815 10818 10817 10824 10833 10837 10838 10838 10842 10846 10848 10852 10854 10855 10856 10859 10861 10862 10864 10865 10864 10865 10866 10867 10867 10867 10868 10869 10870 10870 10869 10870 10871 10871 10872 10872 10872 10872 10871 10871 10871 10870 10870 10869 10867 10867 10866 10866 10865 10864 10863 10862 10860 10859 10857 10856 10855 10854 10853 10851 10850 10848
10706 10713 10714 10717 10720 10725 10732 10736 10740 10746 10752 10756 10757 10761 10766 10769 10771 10775 10782 10789 10793 10798 10801 10802 10809 10816 10814 10818 10827 10831 10832 10833 10837 10841 10844 10847 10848 10849 10851 10853 10855 10856 10858 10860 10860 10860 10861 10861 10862 10863 10864 10865 10865 10865 10865 10866 10867 10867 10868 10868 10868 10867 10867 10867 10866 10866 10866 10864 10863 10863 10862 10861 10861 10860 10859 10858 10857 10855 10853 10852 10851 10850 10848 10847 10846 10844
10695 10700 10702 10706 10710 10717 10724 10731 10736 10741 10745 10748 10749 10752 10755 10759 10765 10770 10776 10782 10787 10792 10795 10795 10805 10815 10811 10812 10820 10823 10827 10829 10832 10837 10839 10841 10843 10844 10846 10847 10848 10850 10852 10854 10854 10855 10857 10856 10857 10858 10859 10860 10860 10861 10862 10863 10863 10863 10863 10863 10863 10862 10862 10862 10862 10862 10861 10860 10859 10858 10858 10857 10856 10855 10854 10854 10853 10851 10849 10848 10847 10845 10844 10843 10841 10839
10687 10693 10696 10700 10705 10710 10717 10725 10729 10732 10737 10742 10743 10742 10745 10752 10759 10765 10770 10775 10780 10786 10789 10789 10800 10810 10805 10806 10813 10816 10822 10825 10826 10832 10834 10834 10837 10839 10839 10840 10842 10844 10845 10847 10849 10851 10852 10852 10852 10853 10854 10856 10856 10856 10858 10859 10858 10858 10857 10858 10858 10857 10857 10857 10857 10857 10856 10855 10855 10854 10853 10852 10851 10850 10850 10849 10848 10846 10844 10843 10842 10840 10839 10838 10837 10834
10683 10687 10689 10695 10701 10706 10713 10721 10724 10724 10729 10735 10733 10731 10739 10747 10752 10759 10765 10770 10774 10778 10782 10786 10795 10804 10803 10802 10806 10809 10817 10821 10821 10826 10829 10828 10830 10832 10832 10833 10835 10837 10838 10841 10844 10846 10847 10847 10847 10848 10849 10851 10851 10852 10854 10853 10852 10852 10853 10853 10852 10852 10852 10852 10852 10852 10851 10850 10850 10849 10848 10847 10846 10845 10845 10845 10843 10841 10840 10838 10836 10835 10834 10833 10832 10830
10680 10681 10685 10691 10696 10702 10710 10715 10714 10712 10719 10726 10723 10725 10735 10741 10746 10754 10760 10766 10768 10770 10777 10783 10789 10799 10803 10798 10799 10804 10812 10819 10819 10819 10821 10821 10822 10824 10825 10827 10828 10829 10831 10834 10837 10840 10842 10842 10842 10842 10844 10846 10845 10846 10847 10847 10846 10847 10848 10848 10847 10846 10846 10847 10847 10847 10846 10846 10845 10844 10843 10841 10840 10840 10840 10839 10838 10836 10834 10833 10831 10830 10829 10827 10826 10825
10666 10669 10675 10679 10681 10689 10696 10697 10697 10701 10711 10717 10716 10722 10731 10736 10743 10749 10754 10759 10761 10765 10773 10777 10782 10794 10800 10794 10793 10801 10808 10813 10813 10810 10811 10813 10814 10818 10819 10820 10821 10822 10824 10827 10830 10833 10836 10837 10836 10836 10838 10839 10839 10840 10841 10841 10841 10842 10842 10843 10842 10841 10841 10841 10841 10841 10840 10840 10840 10839 10837 10836 10835 10835 10835 10834 10832 10831 10829 10828 10826 10825 10823 10822 10821 10820
10650 10654 10659 10662 10667 10678 10683 10683 10688 10696 10706 10711 10713 10721 10727 10733 10738 10742 10748 10751 10755 10765 10771 10771 10775 10785 10796 10795 10790 10796 10802 10802 10803 10802 10803 10805 10807 10810 10812 10813 10814 10814 10816 10820 10823 10826 10829 10830 10830 10830 10831 10831 10832 10834 10835 10835 10835 10836 10838 10838 10837 10836 10836 10836 10836 10835 10835 10834 10834 10833 10831 10830 10829 10830 10829 10828 10827 10826 10824 10823 10821 10819 10818 10816 10815 10814
10640 10642 10647 10655 10664 10674 10677 10679 10686 10695 10704 10708 10712 10718 10723 10727 10732 10736 10742 10744 10751 10764 10766 10765 10766 10773 10793 10799 10784 10784 10790 10790 10793 10795 10795 10798 10799 10801 10804 10805 10806 10807 10809 10814 10817 10819 10821 10823 10823 10824 10824 10824 10826 10828 10829 10829 10830 10831 10832 10832 10831 10830 10830 10830 10830 10830 10830 10829 10828 10827 10826 10825 10824 10824 10824 10822 10821 10820 10819 10817 10815 10814 10812 10810 10809 10809
10633 10639 10647 10655 10662 10668 10670 10674 10683 10692 10700 10705 10709 10713 10717 10722 10726 10731 10737 10741 10748 10757 10759 10758 10754 10762 10786 10792 10776 10773 10780 10782 10785 10787 10787 10791 10793 10793 10795 10798 10799 10800 10803 10807 10809 10811 10813 10815 10816 10817 10817 10818 10820 10822 10822 10823 10824 10825 10826 10826 10826 10824 10824 10825 10825 10824 10824 10823 10823 10822 10821 10820 10820 10819 10818 10816 10815 10814 10813 10811 10809 10808 10806 10804 10802 10802
10633 10639 10647 10654 10660 10665 10667 10672 10682 10691 10697 10702 10705 10707 10711 10716 10720 10724 10730 10735 10740 10745 10748 10744 10743 10757 10778 10782 10775 10770 10771 10775 10777 10778 10781 10784 10787 10788 10788 10790 10793 10794 10796 10799 10801 10803 10805 10806 10809 10811 10811 10812 10814 10815 10817 10818 10818 10819 10820 10820 10819 10818 10819 10819 10819 10818 10818 10817 10816 10816 10816 10815 10814 10813 10812 10810 10810 10808 10807 10805 10803 10802 10800 10797 10795 10794
10630 10639 10650 10658 10663 10666 10668 10673 10680 10684 10687 10691 10694 10696 10699 10705 10710 10716 10720 10725 10729 10734 10737 10735 10742 10759 10769 10771 10774 10768 10762 10767 10769 10769 10773 10777 10779 10781 10782 10783 10785 10786 10788 10790 10793 10795 10797 10799 10802 10804 10805 10805 10806 10808 10810 10812 10812 10813 10813 10813 10813 10813 10813 10813 10813 10812 10812 10811 10810 10810 10810 10809 10808 10807 10805 10804 10803 10801 10800 10799 10797 10795 10793 10790 10788 10786
10624 10635 10646 10652 10656 10659 10661 10665 10669 10671 10676 10682 10685 10688 10695 10701 10705 10709 10713 10717 10720 10724 10731 10735 10744 10756 10756 10758 10767 10765 10757 10758 10761 10762 10764 10767 10769 10772 10776 10777 10777 10777 10779 10782 10786 10787 10789 10792 10795 10798 10799 10799 10799 10801 10803 10805 10805 10806 10806 10807 10807 10806 10807 10807 10806 10806 10805 10805 10804 10804 10802 10802 10801 10800 10798 10797 10796 10795 10793 10792 10790 10788 10785 10783 10781 10779
10622 10631 10637 10639 10643 10645 10646 10651 10654 10659 10666 10672 10677 10684 10692 10694 10694 10698 10702 10706 10709 10716 10726 10733 10741 10746 10745 10748 10757 10758 10752 10748 10751 10754 10753 10755 10759 10763 10768 10769 10769 10770 10771 10774 10778 10780 10783 10786 10789 10791 10792 10793 10793 10794 10796 10797 10798 10799 10799 10800 10799 10799 10799 10799 10799 10799 10799 10798 10797 10796 10795 10794 10794 10793 10791 10790 10789 10787 10786 10784 10782 10780 10777 10775 10772 10770
10619 10627 10630 10632 10636 10637 10638 10640 10642 10647 10654 10661 10670 10679 10680 10679 10681 10686 10692 10697 10702 10711 10722 10729 10735 10737 10739 10743 10745 10745 10746 10741 10740 10745 10746 10747 10750 10754 10758 10760 10762 10765 10765 10767 10770 10773 10777 10780 10782 10784 10785 10786 10787 10788 10789 10790 10791 10791 10792 10792 10791 10791 10792 10791 10792 10792 10792 10791 10790 10789 10788 10788 10788 10786 10784 10783 10782 10780 10778 10776 10774 10772 10770 10767 10765 10762
10609 10613 10615 10619 10624 10626 10628 10629 10632 10639 10647 10657 10666 10669 10667 10670 10677 10680 10684 10692 10698 10705 10715 10721 10725 10729 10734 10738 10733 10732 10738 10736 10732 10735 10739 10740 10741 10744 10748 10751 10755 10759 10761 10762 10763 10766 10769 10772 10774 10776 10777 10779 10779 10780 10782 10782 10783 10783 10784 10784 10784 10784 10784 10784 10785 10785 10784 10784 10783 10782 10782 10781 10781 10779 10778 10777 10775 10773 10771 10768 10766 10764 10762 10760 10757 10755
10599 10599 10603 10609 10611 10613 10615 10617 10624 10634 10642 10649 10655 10658 10660 10667 10674 10675 10678 10687 10691 10695 10704 10711 10715 10723 10729 10728 10723 10723 10728 10728 10726 10727 10729 10733 10735 10735 10739 10743 10746 10751 10755 10756 10756 10758 10761 10764 10766 10767 10769 10771 10772 10772 10774 10774 10775 10775 10775 10776 10776 10776 10776 10776 10776 10777 10777 10777 10776 10776 10775 10774 10774 10772 10771 10769 10767 10766 10763 10760 10758 10757 10754 10752 10750 10747
10587 10589 10595 10599 10598 10602 10608 10615 10624 10629 10633 10639 10645 10649 10653 10657 10660 10663 10665 10671 10676 10681 10690 10697 10706 10717 10721 10718 10717 10718 10719 10719 10719 10720 10721 10725 10728 10729 10731 10734 10737 10741 10746 10749 10750 10752 10754 10756 10758 10759 10760 10762 10763 10764 10765 10766 10767 10768 10768 10768 10768 10768 10768 10768 10768 10769 10769 10769 10769 10769 10767 10766 10765 10764 10762 10761 10759 10758 10755 10752 10750 10748 10747 10745 10742 10738
10577 10582 10587 10590 10593 10600 10608 10614 10616 10617 10622 10628 10632 10636 10640 10641 10643 10649 10653 10660 10667 10673 10680 10688 10699 10714 10717 10712 10711 10712 10711 10711 10710 10711 10713 10716 10720 10721 10723 10726 10729 10731 10735 10740 10743 10746 10747 10748 10749 10750 10751 10753 10754 10755 10757 10758 10759 10759 10760 10760 10760 10760 10760 10760 10761 10762 10762 10761 10761 10759 10758 10757 10756 10755 10753 10752 10750 10749 10746 10744 10741 10739 10738 10736 10733 10730
10567 10572 10576 10581 10588 10594 10598 10600 10601 10605 10611 10614 10619 10626 10630 10632 10639 10645 10651 10657 10660 10665 10673 10678 10690 10710 10714 10704 10701 10702 10701 10701 10702 10702 10705 10707 10710 10713 10714 10717 10719 10721 10725 10730 10733 10736 10739 10740 10740 10740 10741 10743 10745 10746 10748 10750 10750 10751 10752 10752 10752 10753 10752 10752 10753 10753 10753 10752 10751 10750 10748 10747 10746 10745 10744 10742 10741 10739 10737 10735 10733 10731 10729 10727 10724 10721
10555 10558 10563 10570 10577 10581 10584 10587 10589 10594 10599 10606 10617 10624 10625 10630 10636 10637 10641 10648 10650 10655 10665 10666 10679 10706 10709 10691 10689 10693 10692 10693 10695 10695 10697 10698 10700 10703 10707 10710 10710 10711 10715 10720 10722 10725 10727 10730 10731 10731 10732 10733 10736 10738 10739 10741 10742 10742 10743 10743 10744 10744 10743 10744 10743 10743 10743 10742 10741 10740 10739 10738 10737 10735 10734 10733 10732 10730 10728 10726 10724 10722 10719 10717 10714 10711
10544 10548 10555 10561 10565 10569 10574 10579 10583 10592 10603 10612 10619 10620 10622 10627 10625 10624 10632 10639 10640 10647 10653 10652 10670 10699 10698 10680 10681 10687 10686 10686 10686 10687 10690 10691 10692 10695 10697 10701 10702 10703 10706 10709 10713 10716 10717 10720 10722 10724 10725 10726 10727 10729 10730 10732 10733 10733 10734 10734 10734 10734 10734 10734 10734 10733 10733 10732 10731 10730 10729 10728 10727 10726 10724 10723 10722 10721 10719 10717 10715 10712 10710 10707 10704 10702
10533 10540 10548 10553 10559 10569 10578 10585 10593 10601 10606 10608 10609 10610 10614 10612 10608 10612 10617 10618 10626 10637 10638 10641 10664 10687 10683 10674 10680 10684 10679 10676 10676 10679 10684 10684 10685 10688 10688 10691 10693 10695 10697 10700 10705 10708 10709 10711 10713 10716 10718 10719 10720 10721 10721 10722 10723 10723 10724 10724 10724 10724 10724 10724 10724 10724 10724 10723 10722 10721 10720 10719 10717 10716 10715 10713 10712 10711 10709 10707 10705 10703 10700 10697 10695 10692
10523 10530 10538 10545 10554 10567 10575 10578 10582 10583 10582 10583 10586 10587 10587 10584 10585 10590 10593 10602 10620 10628 10629 10642 10659 10669 10670 10671 10677 10678 10669 10663 10665 10672 10677 10676 10677 10680 10681 10683 10685 10686 10689 10692 10695 10698 10701 10703 10705 10707 10709 10711 10712 10712 10712 10713 10713 10713 10714 10714 10715 10715 10715 10715 10715 10715 10714 10714 10713 10712 10711 10710 10708 10707 10705 10704 10702 10700 10699 10697 10696 10693 10691 10688 10685 10682
10515 10524 10534 10541 10547 10553 10556 10557 10558 10558 10560 10564 10566 10565 10565 10568 10574 10581 10591 10609 10619 10617 10627 10643 10644 10648 10662 10665 10665 10668 10662 10654 10657 10664 10668 10669 10670 10671 10672 10675 10677 10678 10680 10683 10685 10689 10692 10694 10696 10698 10699 10701 10702 10704 10704 10704 10704 10704 10705 10705 10705 10706 10706 10706 10706 10705 10704 10704 10703 10701 10701 10700 10699 10697 10696 10694 10692 10691 10689 10687 10685 10684 10681 10678 10675 10672
10507 10518 10527 10530 10534 10540 10544 10547 10549 10550 10552 10554 10554 10556 10561 10568 10576 10586 10598 10609 10606 10603 10621 10633 10626 10636 10655 10653 10651 10659 10657 10650 10649 10652 10656 10659 10661 10662 10663 10664 10667 10670 10672 10674 10675 10678 10680 10683 10686 10688 10689 10691 10692 10693 10694 10694 10694 10695 10695 10695 10695 10696 10696 10696 10696 10695 10694 10693 10692 10691 10691 10690 10689 10687 10685 10684 10683 10681 10679 10677 10675 10673 10671 10668 10665 10662
10500 10509 10514 10516 10523 10530 10534 10539 10541 10541 10542 10544 10547 10552 10559 10566 10575 10584 10592 10596 10591 10594 10612 10620 10617 10629 10642 10639 10640 10647 10646 10645 10645 10641 10643 10647 10651 10654 10655 10656 10659 10661 10663 10666 10667 10669 10670 10672 10675 10677 10679 10681 10682 10683 10684 10684 10684 10685 10685 10685 10685 10685 10685 10685 10685 10684 10683 10683 10682 10681 10681 10680 10679 10677 10675 10674 10673 10671 10668 10666 10664 10662 10660 10657 10654 10651
10492 10500 10505 10509 10516 10522 10527 10533 10533 10533 10534 10536 10539 10546 10555 10564 10571 10579 10586 10585 10581 10588 10603 10606 10606 10621 10630 10625 10625 10631 10635 10639 10640 10637 10635 10637 10643 10648 10649 10650 10651 10651 10653 10656 10659 10661 10662 10663 10665 10667 10670 10672 10673 10675 10675 10675 10675 10675 10674 10674 10675 10675 10675 10675 10674 10673 10673 10672 10671 10671 10670 10669 10668 10667 10665 10663 10662 10660 10658 10656 10653 10651 10649 10646 10643 10640
10484 10492 10499 10503 10506 10512 10519 10523 10523 10525 10525 10525 10534 10549 10560 10566 10571 10574 10576 10573 10572 10580 10589 10590 10596 10614 10618 10607 10609 10623 10632 10632 10632 10633 10630 10629 10632 10637 10640 10641 10641 10641 10643 10646 10649 10652 10653 10655 10657 10659 10660 10662 10664 10665 10666 10666 10666 10665 10664 10664 10665 10665 10665 10664 10663 10663 10662 10661 10660 10660 10659 10658 10657 10656 10655 10653 10651 10649 10647 10645 10643 10641 10638 10635 10632 10629
10473 10481 10490 10493 10496 10503 10508 10511 10514 10514 10511 10520 10542 10557 10560 10559 10559 10559 10560 10563 10565 10570 10576 10581 10592 10602 10601 10598 10604 10615 10620 10621 10622 10621 10620 10621 10623 10626 10631 10634 10633 10632 10632 10632 10636 10639 10641 10644 10648 10651 10652 10652 10652 10654 10655 10655 10655 10654 10654 10655 10656 10655 10654 10654 10653 10652 10652 10650 10650 10649 10648 10647 10646 10645 10644 10642 10640 10639 10637 10635 10633 10630 10627 10625 10622 10619
10464 10471 10477 10479 10482 10488 10493 10498 10500 10498 10507 10531 10550 10550 10543 10542 10544 10547 10553 10557 10556 10560 10569 10579 10586 10587 10586 10590 10596 10598 10602 10608 10612 10612 10613 10615 10615 10614 10619 10624 10623 10621 10618 10617 10620 10624 10627 10632 10636 10640 10642 10642 10642 10643 10643 10643 10643 10643 10645 10646 10645 10645 10644 10643 10642 10642 10641 10640 10639 10638 10637 10637 10636 10634 10633 10631 10630 10628 10626 10624 10622 10619 10616 10614 10611 10608
10453 10457 10462 10465 10468 10473 10480 10483 10484 10494 10517 10537 10538 10530 10528 10532 10535 10539 10545 10547 10547 10554 10563 10569 10574 10573 10571 10576 10582 10586 10590 10593 10596 10604 10607 10603 10599 10599 10604 10609 10610 10607 10604 10604 10607 10611 10616 10620 10623 10626 10629 10631 10633 10633 10633 10633 10633 10633 10634 10634 10634 10634 10633 10633 10632 10631 10630 10629 10628 10627 10627 10626 10625 10624 10622 10621 10619 10617 10615 10612 10610 10607 10604 10602 10599 10596
10438 10442 10446 10449 10451 10457 10466 10472 10482 10501 10518 10521 10517 10516 10518 10520 10523 10529 10535 10539 10542 10547 10551 10556 10562 10563 10559 10563 10569 10572 10575 10575 10580 10592 10594 10586 10584 10587 10591 10595 10595 10594 10594 10596 10599 10603 10607 10611 10613 10614 10616 10617 10619 10621 10623 10624 10624 10624 10623 10623 10623 10623 10622 10622 10621 10619 10618 10617 10617 10617 10617 10615 10614 10613 10611 10610 10608 10606 10603 10600 10597 10595 10592 10590 10587 10584
10428 10432 10439 10443 10446 10453 10462 10473 10487 10499 10505 10506 10509 10513 10513 10514 10518 10522 10527 10536 10539 10537 10539 10546 10551 10550 10547 10548 10552 10555 10559 10562 10572 10581 10575 10567 10570 10577 10581 10585 10585 10584 10586 10587 10590 10594 10596 10600 10603 10605 10605 10604 10604 10605 10608 10611 10613 10613 10612 10612 10611 10610 10610 10610 10609 10606 10606 10606 10606 10606 10606 10605 10604 10602 10599 10598 10596 10593 10590 10588 10585 10582 10580 10578 10575 10572
10425 10431 10439 10444 10449 10455 10462 10472 10482 10490 10497 10503 10508 10510 10509 10509 10510 10510 10516 10530 10532 10525 10526 10533 10537 10536 10535 10535 10537 10540 10542 10550 10565 10567 10551 10545 10558 10568 10572 10577 10579 10578 10578 10577 10579 10582 10583 10586 10591 10592 10592 10592 10591 10592 10594 10596 10598 10599 10599 10599 10599 10598 10598 10598 10596 10595 10595 10596 10595 10595 10594 10592 10591 10589 10587 10585 10582 10580 10578 10576 10573 10570 10568 10566 10563 10560
10424 10430 10435 10439 10446 10454 10460 10468 10476 10484 10494 10499 10499 10500 10498 10497 10496 10493 10503 10523 10525 10512 10511 10519 10522 10521 10521 10520 10520 10522 10526 10538 10551 10546 10531 10535 10552 10557 10560 10566 10569 10569 10568 10566 10567 10568 10569 10572 10576 10577 10578 10578 10580 10582 10582 10582 10583 10583 10583 10584 10584 10586 10586 10585 10584 10585 10585 10585 10583 10582 10581 10579 10577 10575 10574 10572 10570 10568 10566 10564 10561 10558 10556 10553 10550 10547
10421 10426 10430 10437 10447 10455 10459 10464 10472 10479 10486 10487 10486 10486 10485 10484 10483 10483 10495 10513 10512 10498 10497 10503 10505 10506 10506 10504 10505 10509 10515 10525 10532 10528 10525 10534 10542 10542 10546 10551 10553 10555 10557 10554 10554 10555 10556 10558 10561 10562 10563 10565 10567 10569 10569 10569 10570 10569 10569 10570 10571 10572 10572 10572 10573 10573 10572 10571 10570 10568 10567 10566 10564 10562 10560 10559 10557 10555 10553 10551 10548 10545 10543 10541 10538 10535
10415 10421 10429 10437 10445 10450 10452 10459 10466 10471 10473 10473 10472 10472 10471 10472 10476 10483 10493 10497 10489 10483 10485 10484 10484 10491 10494 10493 10496 10502 10507 10512 10517 10519 10520 10525 10528 10530 10533 10535 10538 10541 10543 10542 10542 10543 10543 10545 10547 10548 10548 10550 10552 10554 10555 10556 10557 10557 10557 10558 10558 10559 10560 10559 10559 10559 10558 10557 10555 10554 10553 10552 10551 10549 10547 10545 10544 10542 10540 10538 10535 10533 10531 10528 10525 10522
10413 10420 10426 10432 10437 10442 10446 10451 10455 10458 10461 10461 10460 10460 10462 10465 10472 10480 10480 10470 10463 10466 10470 10468 10471 10481 10486 10488 10493 10498 10499 10502 10506 10507 10508 10511 10515 10517 10518 10520 10523 10525 10526 10527 10529 10529 10529 10531 10532 10533 10534 10535 10536 10538 10539 10541 10543 10543 10544 10545 10545 10546 10546 10545 10545 10545 10544 10543 10541 10540 10539 10537 10536 10535 10534 10532 10530 10528 10527 10524 10522 10520 10518 10515 10512 10509
10409 10413 10419 10425 10431 10435 10437 10439 10443 10449 10453 10451 10448 10450 10455 10457 10461 10463 10460 10454 10453 10456 10458 10460 10466 10473 10478 10483 10487 10489 10491 10492 10493 10494 10497 10499 10501 10501 10503 10505 10506 10507 10508 10510 10511 10513 10515 10517 10518 10519 10520 10520 10521 10522 10523 10525 10527 10529 10530 10531 10531 10532 10531 10531 10531 10530 10530 10529 10527 10526 10525 10523 10522 10521 10520 10518 10516 10515 10514 10511 10509 10507 10504 10501 10499 10495
10398 10405 10412 10419 10423 10425 10428 10432 10437 10441 10441 10437 10435 10441 10447 10447 10449 10452 10453 10451 10448 10445 10445 10451 10456 10460 10467 10473 10476 10477 10478 10479 10480 10482 10485 10486 10487 10487 10487 10487 10489 10491 10493 10493 10494 10497 10499 10502 10504 10505 10506 10507 10507 10508 10509 10511 10512 10514 10515 10516 10516 10516 10516 10516 10516 10515 10515 10514 10513 10512 10511 10510 10509 10507 10506 10505 10503 10502 10500 10498 10495 10494 10491 10488 10486 10482
10399 10405 10409 10413 10415 10418 10422 10425 10426 10427 10429 10430 10431 10434 10436 10438 10442 10446 10446 10443 10437 10432 10433 10440 10446 10451 10455 10459 10462 10465 10465 10465 10467 10470 10471 10472 10473 10472 10471 10471 10472 10475 10477 10478 10480 10481 10483 10485 10488 10490 10492 10493 10493 10494 10495 10496 10497 10498 10499 10500 10500 10500 10500 10500 10500 10500 10500 10499 10499 10498 10497 10497 10495 10494 10493 10492 10490 10489 10487 10484 10482 10480 10478 10475 10472 10469
10394 10396 10399 10404 10405 10407 10411 10415 10417 10420 10424 10426 10425 10425 10425 10430 10435 10438 10436 10434 10430 10424 10424 10431 10438 10442 10442 10445 10449 10452 10453 10453 10455 10456 10457 10459 10459 10458 10459 10458 10458 10459 10462 10464 10466 10467 10469 10470 10471 10473 10476 10477 10478 10480 10481 10481 10482 10483 10483 10484 10485 10485 10485 10485 10485 10485 10485 10485 10484 10484 10484 10483 10482 10481 10480 10479 10477 10475 10473 10471 10469 10467 10465 10462 10459 10456
10384 10386 10391 10394 10395 10398 10405 10411 10412 10413 10415 10416 10416 10417 10419 10422 10426 10427 10426 10424 10421 10418 10420 10425 10430 10432 10434 10435 10437 10439 10442 10443 10444 10445 10446 10448 10448 10449 10449 10448 10448 10449 10450 10451 10453 10455 10456 10456 10457 10459 10461 10462 10464 10466 10467 10468 10469 10469 10470 10470 10471 10471 10471 10471 10471 10471 10471 10471 10471 10470 10470 10469 10468 10468 10467 10465 10464 10462 10460 10459 10457 10454 10452 10449 10446 10443
10377 10379 10381 10386 10390 10395 10400 10402 10402 10403 10404 10407 10410 10412 10412 10412 10413 10415 10416 10416 10415 10416 10419 10421 10423 10425 10426 10427 10427 10429 10431 10433 10434 10435 10435 10436 10437 10439 10439 10439 10439 10439 10439 10440 10442 10443 10444 10445 10446 10447 10449 10450 10452 10454 10455 10455 10456 10456 10457 10458 10458 10458 10459 10459 10459 10459 10458 10458 10458 10458 10457 10456 10456 10455 10454 10452 10451 10449 10448 10445 10443 10441 10438 10435 10432 10430
10363 10368 10374 10378 10382 10388 10392 10392 10394 10395 10395 10399 10403 10403 10400 10400 10402 10406 10410 10411 10411 10413 10414 10414 10415 10416 10418 10418 10419 10420 10421 10422 10424 10425 10425 10425 10426 10427 10428 10429 10429 10429 10430 10431 10431 10432 10434 10435 10436 10437 10438 10439 10440 10441 10442 10443 10443 10444 10445 10445 10446 10446 10447 10447 10447 10447 10446 10446 10446 10445 10445 10444 10443 10442 10441 10440 10438 10436 10434 10432 10430 10428 10425 10422 10419 10417
10354 10364 10371 10372 10374 10382 10388 10388 10385 10384 10384 10387 10391 10391 10390 10392 10397 10402 10404 10405 10405 10406 10406 10406 10406 10407 10408 10409 10411 10411 10412 10413 10414 10415 10415 10415 10416 10416 10418 10419 10420 10420 10421 10421 10422 10423 10424 10424 10426 10427 10428 10428 10429 10430 10431 10431 10432 10433 10433 10433 10434 10435 10435 10435 10435 10434 10434 10434 10433 10433 10432 10431 10430 10429 10428 10426 10425 10423 10421 10418 10416 10414 10411 10408 10406 10404
10354 10361 10364 10367 10370 10375 10379 10376 10371 10371 10374 10377 10380 10382 10384 10389 10394 10395 10396 10397 10397 10398 10398 10397 10398 10399 10400 10401 10402 10403 10404 10404 10405 10406 10407 10407 10407 10408 10409 10409 10410 10411 10411 10412 10413 10413 10413 10414 10415 10415 10416 10417 10417 10418 10419 10419 10420 10420 10421 10421 10422 10422 10422 10422 10421 10421 10421 10420 10420 10419 10419 10418 10417 10416 10414 10412 10411 10409 10406 10404 10402 10400 10397 10394 10392 10389